Skip Page Navigation
NASA JPL Caltech
NASA Logo - Jet Propulsion Laboratory + View the NASA Portal
+ Center for Near-Earth Object Studies
JPL Home Earth Solar System Stars & Galaxies Technology
JPL Solar System Dynamics
BODIES ORBITS EPHEMERIDES TOOLS PHYSICAL DATA DISCOVERY FAQ SITE MAP
IMPORTANT: The SSD Announcement email list is now available. Major changes are coming in the near future, including possible hostname and/or URL changes. To be notified of such changes, subscribe to this email list.

Please visit this page for more details.


JPL Small-Body Database Browser
Search: [ help ]  
523550 (2017 VC27)
Classification: Main-belt Asteroid          SPK-ID: 2523550
Ephemeris | Orbit Diagram | Orbital Elements | Mission Design | Physical Parameters | Discovery Circumstances ]

[ show orbit diagram ]
Orbital Elements at Epoch 2458600.5 (2019-Apr-27.0) TDB
Reference: JPL 5 (heliocentric ecliptic J2000)
 Element Value Uncertainty (1-sigma)   Units 
e .1248560824053584 8.2895e-08  
a 2.483185568113724 3.0592e-08 au
q 2.17314474619352 1.9855e-07 au
i 2.10868632829458 8.1942e-06 deg
node 263.9910863342976 0.00035611 deg
peri 239.284518750532 0.00036154 deg
M 51.80547019272426 6.278e-05 deg
tp 2458394.823198860856
(2018-Oct-03.32319886)
0.00024783 TDB
period 1429.263128674212
3.91
2.6412e-05
7.231e-08
d
yr
n .251878043152164 4.6545e-09 deg/d
Q 2.793226390033928 3.4411e-08 au
  Orbit Determination Parameters
   # obs. used (total)      77  
   data-arc span      4946 days (13.54 yr)  
   first obs. used      2005-10-09  
   last obs. used      2019-04-25  
   planetary ephem.      DE431  
   SB-pert. ephem.      SB431-N16  
   condition code      0  
   norm. resid. RMS      .67045  
   source      ORB  
   producer      Otto Matic  
   solution date      2019-Jul-15 07:09:50  

Additional Information
 Earth MOID = 1.18702 au 
 Jupiter MOID = 2.22519 au 
 T_jup = 3.465 
[ show covariance matrix ]

Ephemeris | Orbit Diagram | Orbital Elements | Mission Design | Physical Parameters | Discovery Circumstances ]

Physical Parameter Table
Parameter Symbol Value Units Sigma Reference Notes
absolute magnitude H 17.9   n/a MPO448267  

523550 (2017 VC27)          Discovered 2007-Feb-22 by Spacewatch at Kitt Peak
Reference: Last Updated: 2018-05-31
Ephemeris | Orbit Diagram | Orbital Elements | Mission Design | Physical Parameters | Discovery Circumstances ]
ABOUT SSD CREDITS/AWARDS PRIVACY/COPYRIGHT GLOSSARY LINKS
FirstGov 2020-Jan-28 16:56 UT
(server date/time)  
NASA Home Page
Site Manager:   Ryan S. Park
Webmaster  Alan B. Chamberlin